Medicine Lodge, KS

2:51 PM CST on December 11, 2019 (GMT -0600)
Medicine Lodge

Weather History for KP28 - November, 2019

Change the Weather History Date:

Sunday, November 17, 2019

  Actual Average Record
Temperature  
Mean Temperature 48 °F 45 °F  
Max Temperature 61 °F 57 °F 81 °F (1999)
Min Temperature 34 °F 32 °F 4 °F (1959)
Degree Days  
Heating Degree Days 17 20  
Month to date heating degree days 396 281  
Since 1 July heating degree days 787 550  
Cooling Degree Days 0 0  
Month to date cooling degree days 0 0  
Year to date cooling degree days 1837 1769  
Moisture  
Dew Point 30 °F    
Average Humidity 48    
Maximum Humidity 70    
Minimum Humidity 25    
Precipitation  
Precipitation 0.00 in 0.02 in 1.52 in (2015)
Month to date precipitation 0.00 0.64  
Year to date precipitation 30.37 25.93  
Snow  
Snow 0.00 in 0.00 in - ()
Month to date snowfall 0.0 0.0  
Since 1 July snowfall T 0.0  
Since 1 September snowfall T 0.0  
Snow Depth 0.00 in    
Sea Level Pressure  
Sea Level Pressure 30.05 in    
Wind  
Wind Speed 9 mph (North)    
Max Wind Speed 21 mph    
Max Gust Speed 30 mph    
T = Trace of Precipitation, MM = Missing Value Source: NWS Daily Summary

Daily Weather History Graph

Daily Weather History Graph

Search for Another Location

Airport or City:

Astronomy

Nov. 17, 2019 Rise Set
Actual Time 7:15 AM CST 5:22 PM CST
Civil Twilight 6:47 AM CST 5:50 PM CST
Nautical Twilight 6:15 AM CST 6:22 PM CST
Astronomical Twilight 5:44 AM CST 6:53 PM CST
Moon 10:02 PM CST (11/17) 12:00 PM CST (11/17)
Length of Visible Light 11h 03m
Length of Day
10h 07m
Waning Gibbous, 73% of the Moon is Illuminated
Nov 17
Waning Gibbous
Nov 19
Last Quarter
Nov 26
New
Dec 4
First Quarter
Dec 11
Full

Hourly Weather History & Observations

Time (CST) Temp. Windchill Dew Point Humidity Pressure Visibility Wind Dir Wind Speed Gust Speed Precip Events Conditions
12:56 AM 46.0 °F - 34.0 °F 63% 30.01 in - Calm Calm - N/A   Unknown
3:56 AM 51.1 °F - 36.0 °F 56% 30.02 in - North 15.0 mph 26.5 mph N/A   Unknown
4:56 AM 50.0 °F - 37.0 °F 61% 30.05 in - North 15.0 mph 27.6 mph N/A   Unknown
5:56 AM 50.0 °F - 37.0 °F 61% 30.06 in - North 13.8 mph - N/A   Unknown
6:56 AM 48.9 °F - 37.0 °F 64% 30.10 in - North 10.4 mph - N/A   Unknown
7:56 AM 48.0 °F - 37.0 °F 66% 30.11 in - NNW 11.5 mph 19.6 mph N/A   Unknown
8:56 AM 50.0 °F - 36.0 °F 59% 30.11 in - North 13.8 mph 19.6 mph N/A   Unknown
9:56 AM 53.1 °F - 35.1 °F 50% 30.11 in - North 18.4 mph 26.5 mph N/A   Unknown
11:56 AM 57.9 °F - 30.9 °F 36% 30.10 in - NNW 16.1 mph 24.2 mph N/A   Unknown
12:56 PM 60.1 °F - 27.0 °F 28% 30.07 in - North 11.5 mph - N/A   Unknown
1:56 PM 60.1 °F - 25.0 °F 26% 30.04 in - North 13.8 mph 23.0 mph N/A   Unknown
2:56 PM 60.1 °F - 26.1 °F 27% 30.03 in - NNW 12.7 mph 19.6 mph N/A   Unknown
3:56 PM 59.0 °F - 26.1 °F 28% 30.02 in - NNW 9.2 mph - N/A   Unknown
4:56 PM 55.9 °F - 26.1 °F 32% 30.03 in - NNW 5.8 mph - N/A   Unknown
5:56 PM 52.0 °F - 26.1 °F 37% 30.02 in - Calm Calm - N/A   Unknown
6:56 PM 50.0 °F - 26.1 °F 39% 30.03 in - Calm Calm - N/A   Unknown
7:56 PM 43.0 °F - 26.1 °F 51% 30.04 in - Calm Calm - N/A   Unknown
8:56 PM 37.0 °F - 26.1 °F 65% 30.03 in - Calm Calm - N/A   Unknown
10:56 PM 35.1 °F 32.2 °F 26.1 °F 70% 29.99 in - North 3.5 mph - N/A   Unknown
11:56 PM 41.0 °F 39.0 °F 27.0 °F 57% 29.96 in - ENE 3.5 mph - N/A   Unknown